VY1XY Weather Reports


Display with metric or nautical units.
time (UTC)temp
F
wind
direction
speed
MPH
gust
MPH
rain 1hr
in
rain 24hr
in
rain mn
in
humidity
%
barometer
mb
20260906234358 69 54 0.0 4.0 0.00 0.00 0.00 43 1016.2
20260906232558 70 166 1.0 4.0 0.00 0.00 0.00 41 1016.3
20260906231658 70 167 0.0 3.0 0.00 0.00 0.00 44 1016.3
20260906225858 68 35 0.0 3.0 0.00 0.00 0.00 47 1016.6
20260906224958 68 14 1.0 4.0 0.00 0.00 0.00 49 1016.5
20260906224058 67 257 1.0 4.0 0.00 0.00 0.00 50 1016.4
20260906223158 67 282 1.0 5.0 0.00 0.00 0.00 50 1016.4
20260906222258 67 264 1.0 3.0 0.00 0.00 0.00 51 1016.4
20260906221358 66 244 1.0 3.0 0.00 0.00 0.00 50 1016.4
20260906220458 66 131 1.0 4.0 0.00 0.00 0.00 51 1016.5
20260906215558 65 28 1.0 5.0 0.00 0.00 0.00 51 1016.8
20260906214658 65 22 1.0 4.0 0.00 0.00 0.00 51 1016.9
20260906211958 65 309 1.0 5.0 0.00 0.00 0.00 51 1017.1
20260906211057 64 289 1.0 3.0 0.00 0.00 0.00 54 1017.2
20260906210158 64 270 0.0 2.0 0.00 0.00 0.00 54 1017.2
20260906205259 63 273 1.0 4.0 0.00 0.00 0.00 55 1017.3
20260906204358 63 283 1.0 5.0 0.00 0.00 0.00 56 1017.4
20260906203459 63 273 1.0 4.0 0.00 0.00 0.00 55 1017.5
20260906202559 63 282 1.0 3.0 0.00 0.00 0.00 57 1017.5
20260906200757 62 275 1.0 2.0 0.00 0.00 0.00 59 1017.7
20260906194958 60 285 1.0 3.0 0.00 0.00 0.00 60 1017.9
20260906194057 59 281 1.0 4.0 0.00 0.00 0.00 61 1018.0
20260906193158 59 25 1.0 4.0 0.00 0.00 0.00 61 1018.1
20260906191358 58 270 1.0 3.0 0.00 0.00 0.00 63 1018.3
20260906190458 58 275 1.0 3.0 0.00 0.00 0.00 64 1018.3
20260906185558 58 42 1.0 4.0 0.00 0.00 0.00 63 1018.4
20260906184657 58 21 0.0 3.0 0.00 0.00 0.00 64 1018.5
20260906183758 57 34 0.0 3.0 0.00 0.00 0.00 66 1018.6
20260906182858 56 278 0.0 2.0 0.00 0.00 0.00 66 1018.7
20260906181958 56 126 0.0 2.0 0.00 0.00 0.00 66 1018.8
20260906175257 55 146 0.0 3.0 0.00 0.00 0.00 70 1019.0
20260906174357 54 124 0.0 3.0 0.00 0.00 0.00 73 1019.2
20260906173457 53 132 0.0 3.0 0.00 0.00 0.00 75 1019.3
20260906172558 52 207 0.0 2.0 0.00 0.00 0.00 77 1019.3
20260906171658 51 189 0.0 2.0 0.00 0.00 0.00 80 1019.4
20260906165858 49 135 1.0 3.0 0.00 0.00 0.00 83 1019.4
20260906164958 47 121 0.0 1.0 0.00 0.00 0.00 87 1019.2
20260906164057 45 143 0.0 1.0 0.00 0.00 0.00 90 1019.1
20260906163157 44 265 0.0 1.0 0.00 0.00 0.00 91 1019.0
20260906162257 43 144 0.0 1.0 0.00 0.00 0.00 91 1018.9
20260906161357 42 144 0.0 1.0 0.00 0.00 0.00 92 1019.0
20260906160457 41 96 0.0 1.0 0.00 0.00 0.00 92 1019.1
20260906155557 40 0 0.0 0.0 0.00 0.00 0.00 91 1019.2
20260906154658 40 96 0.0 1.0 0.00 0.00 0.00 93 1019.2
20260906153757 39 0 0.0 0.0 0.00 0.00 0.00 92 1019.2
20260906152858 38 0 0.0 0.0 0.00 0.00 0.00 93 1019.1
20260906151957 37 0 0.0 0.0 0.00 0.00 0.00 93 1019.1
20260906151057 36 0 0.0 0.0 0.00 0.00 0.00 92 1019.1
20260906150157 36 0 0.0 0.0 0.00 0.00 0.00 93 1019.0
20260906145258 36 118 0.0 1.0 0.00 0.00 0.00 93 1019.0
20260906144357 36 0 0.0 0.0 0.00 0.00 0.00 92 1019.0
20260906143457 36 0 0.0 0.0 0.00 0.00 0.00 93 1019.0
20260906142557 35 0 0.0 0.0 0.00 0.00 0.00 92 1018.9
20260906140757 36 104 0.0 1.0 0.00 0.00 0.00 92 1018.9
20260906135857 36 0 0.0 0.0 0.00 0.00 0.00 92 1018.8
20260906134957 36 0 0.0 0.0 0.00 0.00 0.00 91 1018.9
20260906134058 37 104 0.0 1.0 0.00 0.00 0.00 91 1018.8
20260906133157 37 0 0.0 0.0 0.00 0.00 0.00 90 1018.8
20260906132257 38 0 0.0 0.0 0.00 0.00 0.00 90 1018.8
20260906131357 38 0 0.0 0.0 0.00 0.00 0.00 90 1018.7
20260906124657 39 116 0.0 1.0 0.00 0.00 0.00 89 1018.8
20260906123757 40 120 0.0 1.0 0.00 0.00 0.00 89 1018.8
20260906122858 40 120 0.0 1.0 0.00 0.00 0.00 88 1018.7
20260906121957 41 120 0.0 1.0 0.00 0.00 0.00 89 1018.8
20260906121057 41 0 0.0 0.0 0.00 0.00 0.00 89 1018.7
20260906120157 41 0 0.0 0.0 0.00 0.00 0.00 87 1018.7
20260906115258 42 0 0.0 0.0 0.00 0.00 0.00 87 1018.4
20260906113458 44 0 0.0 0.0 0.00 0.00 0.00 85 1018.7
20260906112557 45 0 0.0 0.0 0.00 0.00 0.00 86 1018.7
20260906105857 46 128 0.0 1.0 0.00 0.00 0.00 85 1018.6
20260906104957 46 127 0.0 1.0 0.00 0.00 0.00 85 1018.3
20260906104058 46 133 0.0 1.0 0.00 0.00 0.00 85 1018.3
20260906103157 46 119 0.0 1.0 0.00 0.00 0.00 85 1018.2
20260906101357 46 156 0.0 1.0 0.00 0.00 0.00 85 1018.1
20260906100457 46 113 0.0 1.0 0.00 0.00 0.00 84 1018.0
20260906095557 46 128 0.0 1.0 0.00 0.00 0.00 83 1017.9
20260906094657 46 122 0.0 1.0 0.00 0.00 0.00 83 1017.9
20260906093757 46 128 0.0 1.0 0.00 0.00 0.00 83 1017.8
20260906092857 47 142 0.0 1.0 0.00 0.00 0.00 81 1017.7
20260906091957 47 132 0.0 1.0 0.00 0.00 0.00 81 1017.7
20260906091057 47 148 0.0 2.0 0.00 0.00 0.00 81 1017.9
20260906090157 47 129 0.0 1.0 0.00 0.00 0.00 80 1017.9
20260906085258 48 125 0.0 2.0 0.00 0.00 0.00 80 1017.8
20260906084357 48 156 0.0 2.0 0.00 0.00 0.00 80 1017.8
20260906083457 47 147 0.0 4.0 0.00 0.00 0.00 81 1017.8
20260906082557 47 0 0.0 0.0 0.00 0.00 0.00 82 1017.8
20260906081658 47 0 0.0 0.0 0.00 0.00 0.00 81 1017.8
20260906080757 47 130 0.0 1.0 0.00 0.00 0.00 80 1017.7
20260906074957 47 0 0.0 0.0 0.00 0.00 0.00 80 1017.7
20260906074058 47 118 0.0 1.0 0.00 0.00 0.00 79 1017.6
20260906073156 47 0 0.0 0.0 0.00 0.00 0.00 79 1017.5
20260906072257 48 0 0.0 0.0 0.00 0.00 0.00 77 1017.4
20260906071357 49 111 0.0 1.0 0.00 0.00 0.00 76 1017.3
20260906070456 49 115 0.0 1.0 0.00 0.00 0.00 76 1017.3
20260906065557 49 121 0.0 1.0 0.00 0.00 0.00 76 1017.3
20260906064656 50 133 0.0 2.0 0.00 0.00 0.00 75 1017.2
20260906063757 50 118 0.0 3.0 0.00 0.00 0.00 75 1017.1
20260906061958 50 127 0.0 1.0 0.00 0.00 0.00 75 1017.0
20260906061056 51 125 0.0 1.0 0.00 0.00 0.00 73 1017.0
20260906060157 51 126 0.0 3.0 0.00 0.00 0.00 72 1016.9
20260906055256 51 131 0.0 2.0 0.00 0.00 0.00 73 1016.8
20260906054357 50 131 0.0 1.0 0.00 0.00 0.00 74 1016.8
20260906053456 51 105 0.0 1.0 0.00 0.00 0.00 74 1016.7
20260906051656 51 0 0.0 0.0 0.00 0.00 0.00 72 1016.5
20260906050756 52 0 0.0 0.0 0.00 0.00 0.00 71 1016.4
20260906045857 53 0 0.0 0.0 0.00 0.00 0.00 70 1016.5
20260906044957 53 127 0.0 1.0 0.00 0.00 0.00 68 1016.5
20260906044057 54 0 0.0 0.0 0.00 0.00 0.00 68 1016.4
20260906043156 55 147 0.0 1.0 0.00 0.00 0.00 66 1016.4
20260906042256 56 127 0.0 2.0 0.00 0.00 0.00 65 1016.3
20260906041356 56 139 0.0 1.0 0.00 0.00 0.00 64 1016.2
20260906040456 57 142 0.0 1.0 0.00 0.00 0.00 63 1016.0
20260906035556 57 142 0.0 1.0 0.00 0.00 0.00 62 1016.2
20260906034657 58 0 0.0 0.0 0.00 0.00 0.00 61 1016.2
20260906032857 61 128 0.0 2.0 0.00 0.00 0.00 57 1016.1
20260906031956 62 122 0.0 2.0 0.00 0.00 0.00 54 1016.0
20260906031056 64 139 0.0 1.0 0.00 0.00 0.00 51 1015.9
20260906030157 65 21 0.0 1.0 0.00 0.00 0.00 48 1015.9
20260906023456 69 0 0.0 0.0 0.00 0.00 0.00 45 1015.6
20260906021657 67 289 0.0 1.0 0.00 0.00 0.00 45 1015.8
20260906020756 68 291 0.0 1.0 0.00 0.00 0.00 44 1015.8
20260906015856 69 0 0.0 0.0 0.00 0.00 0.00 40 1015.6
20260906014956 69 42 0.0 2.0 0.00 0.00 0.00 42 1015.6
20260906014057 68 42 0.0 2.0 0.00 0.00 0.00 43 1015.7
20260906013156 69 313 0.0 2.0 0.00 0.00 0.00 43 1015.6
20260906012256 69 275 0.0 2.0 0.00 0.00 0.00 44 1015.6
20260906011356 69 130 0.0 2.0 0.00 0.00 0.00 42 1015.7
20260906010456 68 87 0.0 2.0 0.00 0.00 0.00 42 1015.5
20260906004656 67 46 0.0 2.0 0.00 0.00 0.00 46 1015.5
20260906003756 67 6 0.0 1.0 0.00 0.00 0.00 46 1015.5
20260906001956 68 272 1.0 4.0 0.00 0.00 0.00 42 1015.4
20260906001056 69 263 1.0 4.0 0.00 0.00 0.00 42 1015.4
20260906000156 69 358 0.0 3.0 0.00 0.00 0.00 42 1015.3
20260905235257 69 280 1.0 4.0 0.00 0.00 0.00 42 1015.7